Regional Weather Roundup
Issued by NWS Albany, NY

Home | Current Version | Previous Version | Graphics & Text | Print | Product List | Glossary On
Versions: 1 2 3 4 5 6 7 8 9 10 11 12 13 14 15 16 17 18 19 20 21 22 23 24 25 26 27 28 29 30 31 32 33 34 35 36 37 38 39 40 41 42 43 44 45 46 47 48 49 50
000
ASUS41 KALY 181010
RWRALY

NEW YORK STATE HOURLY WEATHER ROUNDUP
NATIONAL WEATHER SERVICE ALBANY NY
600 AM EDT THU SEP 18 2014

NOTE: "FAIR" INDICATES FEW OR NO CLOUDS BELOW 12,000 FEET WITH NO
SIGNIFICANT WEATHER AND/OR NO OBSTRUCTIONS TO VISIBILITY.

NYZ032-033-038>043-046>054-057>066-NYZ062>081-181100-
EAST


CITY           SKY/WX    TMP DP  RH WIND       PRES   REMARKS
ALBANY         PTCLDY    45  42  89 CALM      29.99R
GLENS FALLS    CLOUDY    46  45  96 CALM      29.97R
POUGHKEEPSIE   CLEAR     44  41  89 CALM      29.98S
NEWBURGH       CLEAR     46  46 100 CALM      29.99R
MONTGOMERY     PTCLDY    40  39  97 CALM      29.99R FOG
WHITE PLAINS   CLEAR     51  48  89 NW8       29.97S
ISLIP          PTCLDY    53  50  89 CALM      29.95S
NEW YORK CITY  PTCLDY    62  52  69 NW6       29.97R
CENTRAL PARK   CLEAR     58  51  78 NW3       30.00R
$$

NYZ005>009-017-018-044>046-055-056-181100-
CENTRAL


CITY           SKY/WX    TMP DP  RH WIND       PRES   REMARKS
FULTON         CLEAR     51  47  86 CALM      29.98R
SYRACUSE       CLEAR     48  45  89 CALM      29.98R
ROME           PTCLDY    43  42  97 SE3       30.00R
ELMIRA         FOG       47  47 100 W5        30.01R VSB 1/2
BINGHAMTON     CLEAR     44  42  93 CALM      30.00R
MONTICELLO     CLEAR     41  39  93 CALM      30.01R
$$

NYZ026>034-041>043-181100-
NORTH


CITY           SKY/WX    TMP DP  RH WIND       PRES   REMARKS
WATERTOWN      CLOUDY    55  46  71 N13       30.00R
FORT DRUM      NOT AVBL
MASSENA        CLOUDY    49  45  86 N8        30.02R
SARANAC LAKE   CLOUDY    51  48  89 VRB3      29.95R
PLATTSBURGH    LGT RAIN  52  49  89 N10       29.96R
$$

NYZ001>004-010>016-019>021-181100-
WEST


CITY           SKY/WX    TMP DP  RH WIND       PRES   REMARKS
NIAGARA FALLS  CLEAR     46  42  86 CALM      30.00R
BUFFALO        PTCLDY    51  47  86 S5        30.00R
DUNKIRK        CLEAR     50  47  89 S5        30.01R
JAMESTOWN      CLOUDY    43  41  93 S3        30.03R VSB 1/4
WELLSVILLE     PTCLDY    41  38  89 CALM      30.04R FOG
ROCHESTER      MOCLDY    47  45  93 W3        30.00R
PENN YAN       CLEAR     51  50  96 SW6       30.00R
$$

             KEY
       WCI = WIND CHILL INDEX
       VSB = VISIBILITY
       HX  = HEAT INDEX
$$


USA.gov is the U.S. government's official web portal to all federal, state and local government web resources and services.